Bloomington, IL

4:29 PM CDT on September 25, 2016 (GMT -0500)
Central Ill Regional

Weather History for KBMI - September, 2013

Change the Weather History Date:

Monday, September 23, 2013

  Actual Average Record
Temperature  
Mean Temperature 60 °F -  
Max Temperature 77 °F 72 °F 92 °F (2007)
Min Temperature 43 °F 44 °F 39 °F (2012)
Degree Days  
Heating Degree Days 5    
Growing Degree Days 10 (Base 50)    
Moisture  
Dew Point 45 °F    
Average Humidity 64    
Maximum Humidity 97    
Minimum Humidity 28    
Precipitation  
Precipitation 0.00 in - - ()
Sea Level Pressure  
Sea Level Pressure 30.04 in    
Wind  
Wind Speed 8 mph (ESE)    
Max Wind Speed 12 mph    
Max Gust Speed 21 mph    
Visibility 10 miles    
Events      
Averages and records for this station are not official NWS values.
T = Trace of Precipitation, MM = Missing Value Source: NWS Daily Summary

Daily Weather History Graph

Daily Weather History Graph

Search for Another Location

Airport or City:

Trip Planner

Search our weather history database for the weather conditions in past years. The results will help you decide how hot, cold, wet, or windy it might be!

Date:

Astronomy

Sep. 23, 2013 Rise Set
Actual Time 6:44 AM CDT 6:50 PM CDT
Civil Twilight 6:17 AM CDT 7:17 PM CDT
Nautical Twilight 5:45 AM CDT 7:49 PM CDT
Astronomical Twilight 5:12 AM CDT 8:21 PM CDT
Moon 9:21 PM CDT (9/23) 11:04 AM CDT (9/23)
Length of Visible Light 13h 00m
Length of Day
12h 06m
Waning Gibbous, 81% of the Moon is Illuminated
Sep 23
Waning Gibbous
Sep 26
Last Quarter
Oct 4
New
Oct 11
First Quarter
Oct 18
Full

Hourly Weather History & Observations

Time (CDT) Temp. Windchill Dew Point Humidity Pressure Visibility Wind Dir Wind Speed Gust Speed Precip Events Conditions
12:56 AM 48.9 °F - 45.9 °F 89% 30.04 in 10.0 mi East 9.2 mph - N/A   Clear
1:56 AM 46.9 °F - 45.0 °F 93% 30.05 in 10.0 mi ENE 6.9 mph - N/A   Clear
2:56 AM 45.9 °F 42.3 °F 43.9 °F 93% 30.04 in 10.0 mi East 6.9 mph - N/A   Clear
3:56 AM 45.0 °F 41.2 °F 43.0 °F 93% 30.04 in 10.0 mi ENE 6.9 mph - N/A   Clear
4:56 AM 43.9 °F 40.5 °F 43.0 °F 97% 30.05 in 10.0 mi ENE 5.8 mph - N/A   Clear
5:56 AM 43.0 °F 40.3 °F 41.9 °F 96% 30.07 in 10.0 mi East 4.6 mph - N/A   Clear
6:56 AM 43.0 °F 39.5 °F 41.0 °F 93% 30.09 in 10.0 mi East 5.8 mph - N/A   Clear
7:56 AM 47.8 °F - 45.0 °F 90% 30.09 in 10.0 mi East 6.9 mph - N/A   Clear
8:56 AM 56.8 °F - 48.9 °F 75% 30.09 in 10.0 mi SE 5.8 mph - N/A   Clear
9:56 AM 63.0 °F - 45.9 °F 54% 30.09 in 10.0 mi SE 9.2 mph - N/A   Clear
10:56 AM 66.9 °F - 45.9 °F 47% 30.09 in 10.0 mi SSE 8.1 mph - N/A   Clear
11:56 AM 70.0 °F - 45.0 °F 41% 30.08 in 10.0 mi SE 9.2 mph - N/A   Clear
12:56 PM 72.0 °F - 45.0 °F 38% 30.06 in 10.0 mi SE 11.5 mph - N/A   Clear
1:56 PM 73.9 °F - 43.0 °F 33% 30.04 in 10.0 mi SE 8.1 mph - N/A   Clear
2:56 PM 75.9 °F - 41.9 °F 30% 30.01 in 10.0 mi SE 9.2 mph - N/A   Clear
3:56 PM 77.0 °F - 41.9 °F 28% 30.01 in 10.0 mi ESE 11.5 mph 20.7 mph N/A   Clear
4:56 PM 75.9 °F - 43.0 °F 31% 30.00 in 10.0 mi ESE 8.1 mph - N/A   Clear
5:56 PM 72.9 °F - 43.0 °F 34% 30.00 in 10.0 mi SE 9.2 mph - N/A   Clear
6:56 PM 64.9 °F - 45.9 °F 50% 30.02 in 10.0 mi ESE 8.1 mph - N/A   Clear
7:56 PM 59.9 °F - 45.9 °F 60% 30.02 in 10.0 mi ESE 8.1 mph - N/A   Clear
8:56 PM 57.9 °F - 45.9 °F 64% 30.01 in 10.0 mi ESE 8.1 mph - N/A   Clear
9:56 PM 56.8 °F - 46.9 °F 69% 30.01 in 10.0 mi ESE 8.1 mph - N/A   Clear
10:56 PM 54.9 °F - 45.9 °F 72% 30.01 in 10.0 mi SE 6.9 mph - N/A   Clear
11:56 PM 55.9 °F - 45.9 °F 69% 30.00 in 10.0 mi SE 5.8 mph - N/A   Clear